Home   Weather   Quito   Past weeks

Flag for Ecuador Past Weather in Quito, Ecuador — Yesterday and Last 2 Weeks

Now
68 °F

Passing clouds.


Feels Like: 68 °F
Forecast: N/A
Wind: 14 mph from Northwest

Location: Latacunga Airport

Current Time: Jan 24, 2017 at 4:51:13 pm

Latest Report: Jan 24, 2017 at 4:00 pm


Visibility: N/A

Pressure: 30.24 "Hg (21.75 "Hg at 2826m altitude)

Humidity: 33%

Dew Point: 37 °F

Location of QuitoLocation

Past Weather in Quito — Graph

°F

Quito Temperature Yesterday

Maximum temperature yesterday: 72 °F (at 1:00 pm)
Minimum temperature yesterday: 46 °F (at 4:00 am)
Average temperature yesterday: 56 °F

High & Low Weather Summary for the Past Weeks

 TemperatureHumidityPressure
High73 °F (Jan 16, 3:00 pm)100% (Jan 9, 4:00 pm)30.51 "Hg (Jan 9, 4:00 pm)
Low32 °F (Jan 24, 6:00 am)19% (Jan 23, 1:00 pm)30.21 "Hg (Jan 16, 3:00 pm)
Average56 °F84%30.37 "Hg
* Reported Jan 9 3:00 pm — Jan 24 3:00 pm, Quito, Weather by CustomWeather, © 2017

Note: Actual official high and low records may vary slightly from our data, if they occured in-between our weather recording intervals... More about our weather records

Advertising

Quito Weather History for the Previous 24 Hours

Scroll right to see more
 ConditionsComfort  
Time TempWeatherWind HumidityBarometerVisibility
3:00 pm
Tue, Jan 24
72 °FPassing clouds.12 mph31%30.24 "HgN/A
2:00 pm73 °FScattered clouds.7 mph23%30.27 "HgN/A
1:00 pm72 °FSunny.7 mph22%30.30 "Hg10 mi
12:00 pm70 °FSunny.2 mph23%30.33 "Hg10 mi
11:00 am66 °FSunny.3 mph28%30.39 "Hg10 mi
10:00 am61 °FPassing clouds.2 mph27%30.42 "HgN/A
9:00 am55 °FSunny.2 mph38%30.42 "Hg10 mi
8:00 am46 °FPassing clouds.3 mph53%30.42 "HgN/A
7:00 am34 °FScattered clouds.2 mph100%30.42 "HgN/A
6:00 am32 °FPassing clouds.2 mph100%30.39 "HgN/A
5:00 am34 °FPassing clouds.2 mph100%30.39 "HgN/A
4:00 am34 °FPassing clouds.5 mph100%30.39 "HgN/A
3:00 am43 °FPassing clouds.2 mph66%30.39 "HgN/A
2:00 am45 °FPassing clouds.5 mph61%30.42 "HgN/A
1:00 am45 °FPassing clouds.7 mph57%30.42 "HgN/A
12:00 am46 °FPassing clouds.5 mph62%30.45 "HgN/A
11:00 pm
Mon, Jan 23
46 °FPassing clouds.7 mph57%30.45 "HgN/A
10:00 pm46 °FClear.9 mph53%30.42 "Hg10 mi
9:00 pm48 °FClear.8 mph54%30.42 "Hg10 mi
8:00 pm52 °FClear.12 mph50%30.39 "Hg10 mi
7:00 pm55 °FClear.14 mph47%30.36 "Hg10 mi
6:00 pm63 °FSunny.9 mph34%30.33 "Hg10 mi
5:00 pm66 °FPassing clouds.13 mph24%30.30 "HgN/A
4:00 pm68 °FPassing clouds.12 mph26%30.30 "HgN/A
Weather by CustomWeather, © 2017

See weather overviewHow to use our weather pages